BEIDOU-3 M15 (C34)

Last updated on Wed Aug 26 2026 00:04:16 GMT+0000 (Coordinated Universal Time)

1 43648U 18078B 26237.41607772 -.00000025 00000+0 00000+0 0 9999 2 43648 54.0199 297.5541 0002733 45.3663 314.7374 1.86227651 53465
UTC large
Height (km)
Speed (km/s)
/
Latitude / Longitude
Inclination (degrees)
Orbital Period (minutes)
Azimuth
Elevation
Range (km)
Doppler Factor

Next 0 passes for location: London (51.5072 / 0.1276)

No passes found over London.
BEIDOU-3 M15 (C34)